Location: Williams Lake
(52.1170°N, 122.1500°W)
Time: 22:10:11
(UTC-08:00)

Daily predictions for brighter satellites

Satellite Brightness Start Highest point End
(mag) Time Altitude Azimuth Time Altitude Azimuth Time Altitude Azimuth
CENTAUR R/B 3.8 17:56:10 10° NW 18:03:42 59° SW 18:11:48 10° SSE
BREEZE-M DEB (TANK) 2.3 18:02:49 10° W 18:04:53 41° S 18:07:48 10° ESE
Cosmos 1782 Rocket 3.8 18:01:15 10° S 18:05:34 52° E 18:09:56 10° NNE
USA 229 DEB 4.4 18:00:53 10° NW 18:07:32 42° NNE 18:14:17 10° E
USA 229 4.4 18:00:59 10° NW 18:07:37 41° NNE 18:14:22 10° E
ATLAS CENTAUR R/B 1.9 18:03:17 10° SW 18:07:49 65° NW 18:12:02 10° NE
Cosmos 44 3.6 18:07:08 10° NW 18:11:37 62° SW 18:15:55 10° SSE
Meteor 1-18 Rocket 4.2 18:06:45 10° N 18:12:18 67° ENE 18:17:52 10° SSE
Cosmos 2251 Rocket 4.5 18:07:26 10° SW 18:12:33 50° WNW 18:17:41 10° NNE
COSMO-SKYMED 1 2.7 18:08:34 10° NNE 18:12:52 57° E 18:17:08 10° S
Cosmos 1633 4.4 18:13:10 10° ESE 18:14:49 13° E 18:16:28 10° ENE
NOSS 3-4 (A) 3.9 18:09:45 10° WSW 18:16:07 69° NW 18:22:48 10° NE
Cosmos 2333 Rocket 3.7 18:12:06 10° NNW 18:16:13 20° NNE 18:20:21 10° ENE
NOSS 3-4 (C) 3.9 18:09:52 10° WSW 18:16:14 69° NW 18:22:55 10° NE
SJ-6B 3.1 18:13:43 10° SE 18:17:34 47° ENE 18:21:22 10° N
Cosmos 1484 Rocket 3.9 18:16:19 10° S 18:20:12 50° W 18:24:02 10° NNW
USA 186 3.8 18:19:50 10° ENE 18:20:21 10° ENE 18:20:56 10° NE
Okean 2 Rocket 3.2 18:17:07 10° S 18:21:29 57° E 18:25:50 10° NNE
Resurs 1-3 4.5 18:18:38 10° ESE 18:22:24 29° ENE 18:26:10 10° N
NOSS 2-2 (E) 4.0 18:18:27 10° SSW 18:22:30 49° SE 18:27:23 10° NE
ATLAS 2AS CENTAUR R/B 4.1 18:16:50 10° W 18:24:18 39° NNW 18:31:49 10° NE
SL-16 R/B 2.3 18:18:48 10° NNW 18:24:31 84° WSW 18:30:12 10° SSE
Cosmos 2082 Rocket 3.0 18:19:49 10° SW 18:25:24 54° NW 18:31:02 10° NNE
FengYun 1-2 T 4.4 18:24:17 10° SE 18:29:35 51° ENE 18:34:54 10° N
Cosmos 1340 3.2 18:26:29 10° N 18:30:02 36° ENE 18:33:34 10° SE
Cosmos 1709 Rocket 4.5 18:24:33 10° SSE 18:30:09 36° E 18:35:42 10° NNE
Meteor 1-14 Rocket 4.3 18:25:35 10° S 18:31:33 76° E 18:37:33 10° NNE
USA 215 3.5 18:26:46 10° ENE 18:33:15 69° NNW 18:39:45 10° W
Cosmos 1461 3.2 18:30:13 10° NW 18:34:12 66° SW 18:38:13 10° SSE
Meteor 1-28 Rocket 3.1 18:33:16 10° NNE 18:37:05 81° ESE 18:40:54 10° S
Cosmos 2151 Rocket 3.9 18:35:41 10° SSE 18:39:58 44° E 18:44:17 10° NNE
Meteor 1-20 Rocket 4.4 18:34:27 10° S 18:40:09 59° E 18:45:55 10° NNE
Okean 1 3.3 18:37:23 10° N 18:41:28 73° E 18:45:31 10° SSE
Meteor 1-13 Rocket 4.3 18:36:11 10° N 18:41:36 52° ENE 18:47:03 10° SSE
NOSS 2-2 (D) 3.7 18:38:33 10° SSW 18:42:40 61° SE 18:47:40 10° NE
Cosmos 2322 Rocket 2.7 18:37:32 10° NW 18:43:05 62° WSW 18:48:37 10° SSE
Genesis I 3.8 18:40:12 10° NW 18:43:57 39° NE 18:46:33 17° E
FREGAT/IRIS 2.6 18:41:51 10° SSE 18:44:56 88° WSW 18:48:03 10° NNW
Cosmos 1745 Rocket 4.0 18:41:33 10° S 18:47:53 90° E 18:54:12 10° N
RESURS DK-1 4.0 18:44:10 10° WSW 18:47:59 34° NW 18:51:50 10° NNE
Okean 1 Rocket 4.1 18:45:51 10° SE 18:49:26 24° E 18:53:01 10° NE
Cosmos 2292 Rocket 4.5 18:46:08 10° SSE 18:51:16 56° E 18:58:08 10° NNE
Helios 1A 3.6 18:48:30 10° SE 18:52:17 34° ENE 18:56:05 10° N
CZ-2D R/B 3.8 18:48:50 10° SE 18:52:21 37° ENE 18:55:55 10° N
CZ-4B DEB 4.3 18:53:49 19° NE 18:53:49 19° NE 18:55:49 10° NNE
Cosmos 2322 3.7 18:48:27 10° NNW 18:54:12 69° NE 18:59:54 10° SE
Cosmos 1570 Rocket 4.3 18:52:53 10° NNW 18:57:57 47° ENE 19:02:11 14° SE
Okean 1-7 Rocket 4.1 18:54:02 10° N 18:58:19 38° ENE 19:02:21 11° SE
NOSS 2-2 (C) 3.6 18:55:40 10° SW 18:59:52 81° SE 19:04:43 11° NE
Cosmos 1386 Rocket 4.4 18:54:00 10° S 19:00:06 86° E 19:06:11 10° N
SKYMED 2 4.4 18:56:43 10° N 19:00:58 52° WNW 19:05:12 10° SW
Cosmos 407 Rocket 3.6 18:56:29 10° S 19:01:37 58° ESE 19:06:52 10° NNE
ALOS 2.2 18:57:10 10° SSE 19:01:51 87° ENE 19:06:34 10° NNW
deb Kosmos-1763 4.1 18:58:53 10° SSW 19:02:39 63° ESE 19:06:25 10° NNE
Cosmos 676 Rocket 4.3 18:57:48 10° S 19:02:41 43° ESE 19:07:37 10° NE
Cosmos 1833 Rocket 4.1 18:57:31 10° WSW 19:02:41 36° NW 19:07:54 10° NNE
H-2A R/B 2.6 18:59:45 10° SSE 19:03:25 60° ENE 19:07:09 10° N
Cosmos 1812 4.2 19:02:25 10° NNW 19:06:04 40° W 19:09:43 10° SSW
COSMOS 2428 2.9 19:00:33 10° NNW 19:06:06 51° NE 19:09:59 19° ESE
Meteor 2-4 Rocket 3.8 19:00:36 10° N 19:06:09 53° ENE 19:11:30 10° SSE
Spot 1 4.1 19:02:43 11° SE 19:06:24 48° ENE 19:10:26 10° N
Cosmos 2237 4.3 19:01:08 10° NNW 19:06:50 61° NE 19:11:31 15° SE
FENGYUN 3A 3.7 19:03:59 10° SSE 19:09:25 86° WSW 19:14:54 10° NNW
Meteor 1-25 Rocket 4.4 19:04:54 10° SSW 19:10:31 79° WNW 19:16:16 10° N
Cosmos 2333 4.5 19:05:04 10° NNW 19:10:36 49° NE 19:14:04 22° ESE
Cosmos 1238 Rocket 2.0 19:07:56 10° N 19:11:11 80° ENE 19:14:08 10° SSE
Cosmos 1025 Rocket 3.4 19:11:57 10° N 19:16:07 41° ENE 19:17:56 27° ESE
Cosmos 2237 Rocket 3.2 19:13:02 10° NNW 19:18:01 29° NE 19:19:50 25° ENE
SAR-Lupe-1 4.0 19:16:30 22° SE 19:18:37 61° ENE 19:22:10 10° N
Cosmos 1536 Rocket 4.2 19:15:01 10° NNW 19:19:25 58° W 19:23:48 10° S
Cosmos 2208 Rocket 4.1 19:15:36 10° NNW 19:21:04 64° ENE 19:24:48 20° SE
Meteor 1-11 Rocket 3.8 19:16:44 10° S 19:22:23 56° E 19:28:09 10° NNE
SAR-Lupe-4 3.4 19:20:06 15° SSE 19:22:57 79° ENE 19:26:34 10° NNW
Okean 2 4.0 19:21:31 10° N 19:25:17 35° ENE 19:25:17 35° ENE
Cosmos 1190 Rocket 4.0 19:21:09 10° SSW 19:26:21 83° WNW 19:31:36 10° NNE
Cosmos 1140 Rocket 3.7 19:24:28 10° S 19:29:19 44° ESE 19:33:58 11° NE
Resurs 01 Rocket 2.2 19:29:17 10° S 19:33:38 59° WSW 19:38:02 10° NNW
Cosmos 2360 Rocket 2.7 19:30:19 10° NW 19:35:54 60° WSW 19:41:27 10° SSE
Spot 2 Rocket 3.9 19:31:03 10° S 19:36:03 63° WSW 19:41:07 10° NNW
Cosmos 1602 3.6 19:32:25 10° S 19:36:18 84° E 19:40:15 10° NNE
GEOS 3 Rocket 3.6 19:33:43 23° NE 19:37:00 67° SE 19:42:14 10° SSW
Cosmos 2219 Rocket 2.4 19:34:13 10° NNW 19:39:42 52° NE 19:41:19 39° E
Cosmos 614 Rocket 4.1 19:38:57 10° S 19:43:41 45° ESE 19:43:41 45° ESE
NOSS 0 Rocket 4.1 19:38:53 10° NNW 19:44:56 53° NE 19:46:47 39° E
ARGOS 4.4 19:47:41 24° NE 19:47:41 24° NE 19:51:23 10° N
ATLAS CENTAUR R/B 3.6 19:44:13 10° WNW 19:47:33 21° NNW 19:50:02 13° NNE
SL-16 R/B 3.4 19:44:24 10° NNW 19:49:05 25° NE 19:49:37 25° NE
Cosmos 1633 2.9 19:45:39 10° SSW 19:49:19 65° WNW 19:53:00 10° N
USA 186 2.4 19:51:14 49° NW 19:51:14 49° NW 19:53:35 10° NNW
Envisat 2.9 19:50:34 43° SE 19:52:10 67° ENE 19:57:14 10° N
SL-08 ROCKET BODY 4.3 19:47:26 10° S 19:53:34 70° E 19:59:46 10° NNE
Cosmos 1954 Rocket 3.9 19:49:20 10° SSW 19:54:32 86° ESE 19:59:49 10° NNE
Cosmos 2327 Rocket 4.4 19:48:44 10° S 19:54:51 62° E 20:01:06 10° NNE
H-2A R/B 3.8 19:58:07 19° NE 19:58:07 19° NE 20:00:45 10° N
Cosmos 1300 Rocket 3.9 19:53:26 10° SSW 19:57:50 66° WNW 20:02:17 10° N
USA 229 DEB 3.7 19:52:07 10° NW 19:59:14 88° SW 20:02:29 37° SE
USA 229 3.7 19:52:13 10° NW 19:59:20 88° SW 20:02:34 37° SE
Cosmos 1833 4.0 19:55:46 10° SSW 20:01:28 80° ESE 20:05:48 18° NNE
Cosmos 2333 Rocket 2.2 19:56:00 10° NNW 20:01:42 60° NE 20:02:36 54° E
Cosmos 1939 Rocket 3.5 20:04:47 45° N 20:04:47 45° N 20:07:40 10° N
ERS-1 Rocket 3.0 20:05:39 58° ENE 20:05:39 58° ENE 20:10:31 10° N
NOSS 3-1 (A) 4.1 20:04:41 10° NW 20:11:46 59° NE 20:13:53 45° E
Cosmos 2184 Rocket 3.9 20:07:18 10° S 20:13:38 83° E 20:19:56 10° NNE
Cosmos 2074 Rocket 3.9 20:07:39 10° S 20:13:56 86° E 20:20:16 10° N
USA 215 3.5 20:13:45 40° ENE 20:15:57 60° N 20:22:22 10° WNW
Cosmos 1980 3.7 20:10:27 10° NNW 20:16:05 62° NE 20:16:13 62° ENE
Cosmos 1536 4.4 20:13:16 10° SSW 20:19:17 27° N 20:21:13 10° N
ATLAS 2AS CENTAUR R/B 3.8 20:09:42 10° NW 20:17:20 40° NNE 20:20:09 31° NE
Cosmos 1818 3.7 20:19:59 10° SW 20:25:27 72° NW 20:26:53 49° NNE
H-2A R/B 4.5 20:29:47 13° N 20:29:47 13° N 20:30:28 10° N
Cosmos 1892 Rocket 4.2 20:22:33 10° NNW 20:25:52 51° NNW 20:25:52 51° NNW
Okean 1 Rocket 4.1 20:22:45 10° SSW 20:27:04 46° WNW 20:31:26 10° N
Meteor 1-5 Rocket 4.2 20:22:12 10° S 20:28:11 90° WNW 20:34:08 10° NNE
Nadezhda 3 Rocket 3.8 20:22:49 10° N 20:29:01 84° E 20:29:55 67° SSE
Cosmos 405 Rocket 4.1 20:26:04 10° NNW 20:28:44 38° NNW 20:28:44 38° NNW
NOSS 3-1 (C) 3.9 20:25:54 10° NW 20:33:10 79° NE 20:34:41 61° ESE
Cosmos 2285 Rocket 4.3 20:26:50 10° NNW 20:33:12 64° WSW 20:35:37 39° S
Cosmos 841 Rocket 4.3 20:32:40 10° NNW 20:36:14 40° N 20:36:14 40° N
Terra 4.2 20:42:40 13° NNE 20:42:40 13° NNE 20:43:26 10° N
Cosmos 2154 Rocket 4.1 20:43:13 61° NE 20:43:13 61° NE 20:48:28 10° NNE
Helios 1B rocket 4.5 20:42:27 10° N 20:51:30 - SW 20:44:08 22° N
SPOT 5 4.1 20:50:09 34° N 20:50:09 34° N 20:53:04 10° NNW
COSMOS 2428 4.0 20:45:06 10° NW 20:50:15 36° WSW 20:52:04 29° SW
Cosmos 1763 Rocket 4.3 20:48:44 10° NNW 20:52:11 44° NNW 20:52:11 44° NNW
Cosmos 2237 Rocket 2.6 20:56:55 10° NNW 21:01:41 60° WNW 21:01:41 60° WNW
Cosmos 2219 Rocket 3.5 21:18:29 10° NW 21:23:05 34° W 21:23:05 34° W
ATLAS CENTAUR R/B 4.4 21:25:41 10° NNW 21:26:20 12° NNW 21:26:20 12° NNW
SL-16 R/B 3.5 21:28:15 10° NNW 21:31:30 36° NNW 21:31:30 36° NNW
H-2A R/B 3.9 21:38:45 27° NNW 21:38:45 27° NNW 21:41:08 10° NNW
Cosmos 2333 Rocket 3.9 21:40:45 10° NW 21:44:38 28° W 21:44:38 28° W
USA 215 4.1 22:01:05 45° WNW 22:01:05 45° WNW 22:05:21 10° WNW
ATLAS 2AS CENTAUR R/B 3.6 22:01:24 10° NW 22:07:35 54° NNW 22:07:35 54° NNW
